Weather in Linyi

China     35°02′08″N   118°20′05″E
temp.,
°C
wind,
m/s
gust,
m/s
humid.,
%
clouds,
%
prec.,
mm/h
press.,
hPa
HPBL,
m
3 march, wed
wed323:00+3sse366269 0.0 1030131
02:00+2s257284 0.0 1029123
05:00+2s2478100 0.0 102888
08:00+4s4777100 0.0 1027290
11:00+8s5751100 0.0 1026672
14:00+12s683696 0.0 10221008
17:00+11s474787 0.0 1022910
20:00+6s356964 0.0 102297
4 march, thu
thu423:00+5sse36780 0.0 1023118
02:00+3sse22910 0.0 102129
05:00+3sse22940 0.0 102026
08:00+5s24890 0.0 1021170
11:00+12ssw34580 0.0 1021669
14:00+16ssw34450 0.0 10191110
17:00+15ssw24510 0.0 1018221
20:00+10sse33640 0.0 101938
5 march, fri
fri523:00+9sse237053 0.0 102125
02:00+8ssw127576 0.0 102123
05:00+8se2274100 0.0 102030
08:00+9se1268100 0.0 102198
11:00+12se2256100 0.0 1021443
14:00+15ese2350100 0.0 1020761
17:00+15ese345467 0.0 1019694
20:00+9ne8127283 0.0 1024519
6 march, sat
sat623:00+4ne81474100 0.0 1027440
02:00+3ne71269100 0.0 1028521
05:00+1ne8136582 0.0 1030535
08:00+1nne8146190 0.0 1032584
11:00+4ne71050100 0.0 1033677
14:00+6nne7946100 0.0 1031789
17:00+5ne6945100 0.0 1030740
20:00+2ne6948100 0.0 1032557
7 march, sun
sun723:00+1nne4753100 0.0 1033372
02:000nne476099 0.0 1032284
05:000nne365998 0.0 1031253
08:00+1nne355791 0.0 1032268
11:00+7ne33447 0.0 1031630
14:00+11ne21423 0.0 1029881
17:00+11ne124611 0.0 1028890
20:00+6se465855 0.0 1029147